When you browse on this site, cookies collect data to enhance your experience and personalize the content and advertising you see.
Visit our Privacy Policy to learn more. By continuing to use the site, you agree to this use of cookies and data.
  • In Czech Republic
  • List of Countries
  • For 7 days
  • Water Temperature
  • Weather Map
  • Weather Widgets
  • user-avatar
    Login

    Hourly Weather Brilevka

    Today, 19 August, Monday

    Time Temperature Precipitation Wind Pressure Humidity
    00:00 +15°C° 0 mm 1 mps 748 mmHg 79%
    01:00 +15°C° 0 mm 1 mps 748 mmHg 79%
    02:00 +14°C° 0 mm 1 mps 748 mmHg 78%
    03:00 +14°C° 0 mm 2 mps 748 mmHg 81%
    04:00 +14°C° 0 mm 2 mps 748 mmHg 84%
    05:00 +14°C° 0 mm 2 mps 748 mmHg 87%
    06:00 +16°C° 0 mm 2 mps 749 mmHg 82%
    07:00 +18°C° 0 mm 3 mps 749 mmHg 78%
    08:00 +20°C° 0 mm 3 mps 749 mmHg 73%
    09:00 +22°C° 0 mm 3 mps 749 mmHg 68%
    10:00 +23°C° 0 mm 4 mps 749 mmHg 63%
    11:00 +26°C° 0 mm 4 mps 749 mmHg 58%
    12:00 +27°C° 0 mm 4 mps 749 mmHg 57%
    13:00 +28°C° 0 mm 4 mps 749 mmHg 56%
    14:00 +28°C° 0 mm 4 mps 749 mmHg 55%
    15:00 +28°C° 0 mm 3 mps 749 mmHg 58%
    16:00 +28°C° 0 mm 3 mps 749 mmHg 61%
    17:00 +28°C° 0 mm 3 mps 750 mmHg 64%
    18:00 +26°C° 0 mm 3 mps 750 mmHg 70%
    19:00 +24°C° 0 mm 2 mps 750 mmHg 76%
    20:00 +21°C° 0 mm 2 mps 750 mmHg 82%
    21:00 +21°C° 0 mm 3 mps 750 mmHg 83%
    22:00 +20°C° 0 mm 3 mps 750 mmHg 84%
    23:00 +20°C° 0 mm 3 mps 750 mmHg 84%

    Tomorrow, 20 August, Tuesday

    Time Temperature Precipitation Wind Pressure Humidity
    00:00 +19°C° 0.1 mm 3 mps 750 mmHg 86%
    01:00 +19°C° 0.1 mm 3 mps 750 mmHg 87%
    02:00 +19°C° 0.1 mm 3 mps 750 mmHg 88%
    03:00 +18°C° 0.2 mm 2 mps 751 mmHg 90%
    04:00 +18°C° 0.2 mm 2 mps 751 mmHg 91%
    05:00 +18°C° 0.2 mm 2 mps 751 mmHg 92%
    06:00 +19°C° 0.1 mm 2 mps 751 mmHg 88%
    07:00 +20°C° 0.1 mm 2 mps 751 mmHg 84%
    08:00 +22°C° 0.1 mm 3 mps 751 mmHg 80%
    09:00 +24°C° 0 mm 3 mps 752 mmHg 74%
    10:00 +26°C° 0 mm 2 mps 752 mmHg 69%
    11:00 +28°C° 0 mm 2 mps 752 mmHg 63%
    12:00 +28°C° 0.1 mm 2 mps 752 mmHg 62%
    13:00 +29°C° 0.1 mm 2 mps 752 mmHg 60%
    14:00 +30°C° 0.1 mm 2 mps 752 mmHg 59%
    15:00 +29°C° 0.6 mm 2 mps 752 mmHg 63%
    16:00 +29°C° 0.6 mm 2 mps 752 mmHg 67%
    17:00 +28°C° 0.6 mm 1 mps 752 mmHg 71%
    18:00 +26°C° 0.5 mm 1 mps 752 mmHg 77%
    19:00 +25°C° 0.5 mm 1 mps 752 mmHg 83%
    20:00 +23°C° 0.5 mm 1 mps 753 mmHg 89%
    21:00 +22°C° 0.2 mm 1 mps 753 mmHg 90%
    22:00 +22°C° 0.2 mm 1 mps 753 mmHg 91%
    23:00 +21°C° 0.2 mm 1 mps 753 mmHg 92%

    Day after tomorrow, 21 August, Wednesday

    Time Temperature Precipitation Wind Pressure Humidity
    00:00 +21°C° 0 mm 1 mps 753 mmHg 92%
    01:00 +21°C° 0 mm 1 mps 753 mmHg 92%
    02:00 +20°C° 0 mm 1 mps 753 mmHg 91%
    03:00 +20°C° 0 mm 1 mps 753 mmHg 91%
    04:00 +20°C° 0 mm 1 mps 753 mmHg 92%
    05:00 +19°C° 0 mm 1 mps 753 mmHg 92%
    06:00 +21°C° 0 mm 1 mps 753 mmHg 88%
    07:00 +22°C° 0 mm 1 mps 753 mmHg 85%
    08:00 +23°C° 0 mm 2 mps 753 mmHg 82%
    09:00 +24°C° 0 mm 2 mps 753 mmHg 76%
    10:00 +26°C° 0 mm 3 mps 753 mmHg 69%
    11:00 +27°C° 0 mm 3 mps 753 mmHg 62%
    12:00 +28°C° 0 mm 3 mps 752 mmHg 59%
    13:00 +29°C° 0 mm 4 mps 752 mmHg 56%
    14:00 +30°C° 0 mm 4 mps 752 mmHg 53%
    15:00 +29°C° 0 mm 3 mps 752 mmHg 56%
    16:00 +29°C° 0 mm 3 mps 751 mmHg 60%
    17:00 +29°C° 0 mm 2 mps 751 mmHg 63%
    18:00 +27°C° 0.3 mm 2 mps 751 mmHg 68%
    19:00 +25°C° 0.3 mm 2 mps 751 mmHg 73%
    20:00 +23°C° 0.3 mm 2 mps 751 mmHg 79%
    21:00 +21°C° 0.3 mm 2 mps 751 mmHg 80%
    22:00 +21°C° 0.3 mm 2 mps 751 mmHg 81%
    23:00 +21°C° 0.3 mm 1 mps 751 mmHg 81%

    22 August, Thursday

    Time Temperature Precipitation Wind Pressure Humidity
    00:00 +21°C° 0.5 mm 1 mps 751 mmHg 82%
    01:00 +21°C° 0.5 mm 1 mps 751 mmHg 83%
    02:00 +20°C° 0.5 mm 1 mps 751 mmHg 84%
    03:00 +20°C° 1.3 mm 1 mps 751 mmHg 87%
    04:00 +20°C° 1.3 mm 1 mps 751 mmHg 90%
    05:00 +20°C° 1.3 mm 1 mps 751 mmHg 93%
    06:00 +20°C° 0.6 mm 1 mps 751 mmHg 93%
    07:00 +19°C° 0.6 mm 2 mps 752 mmHg 93%
    08:00 +20°C° 0.6 mm 2 mps 752 mmHg 93%
    09:00 +20°C° 0.2 mm 3 mps 752 mmHg 92%
    10:00 +20°C° 0.2 mm 3 mps 752 mmHg 91%
    11:00 +20°C° 0.2 mm 3 mps 752 mmHg 90%
    12:00 +20°C° 0 mm 3 mps 752 mmHg 90%
    13:00 +20°C° 0 mm 4 mps 753 mmHg 89%
    14:00 +20°C° 0 mm 4 mps 753 mmHg 88%
    15:00 +19°C° 0 mm 4 mps 753 mmHg 88%
    16:00 +19°C° 0 mm 4 mps 753 mmHg 87%
    17:00 +19°C° 0 mm 4 mps 753 mmHg 86%
    18:00 +19°C° 0 mm 3 mps 753 mmHg 88%
    19:00 +18°C° 0 mm 3 mps 753 mmHg 89%
    20:00 +18°C° 0 mm 2 mps 754 mmHg 90%
    21:00 +17°C° 0 mm 2 mps 754 mmHg 91%
    22:00 +17°C° 0 mm 2 mps 754 mmHg 92%
    23:00 +17°C° 0 mm 2 mps 754 mmHg 92%

    23 August, Friday

    Time Temperature Precipitation Wind Pressure Humidity
    00:00 +16°C° 0 mm 2 mps 754 mmHg 93%
    01:00 +16°C° 0 mm 2 mps 754 mmHg 93%
    02:00 +15°C° 0 mm 2 mps 754 mmHg 93%
    03:00 +15°C° 0 mm 2 mps 754 mmHg 94%
    04:00 +13°C° 0 mm 3 mps 754 mmHg 94%
    05:00 +13°C° 0 mm 3 mps 754 mmHg 95%
    06:00 +14°C° 0 mm 3 mps 754 mmHg 90%
    07:00 +17°C° 0 mm 3 mps 754 mmHg 85%
    08:00 +18°C° 0 mm 3 mps 755 mmHg 80%
    09:00 +19°C° 0 mm 3 mps 755 mmHg 74%
    10:00 +21°C° 0 mm 4 mps 755 mmHg 68%
    11:00 +22°C° 0 mm 4 mps 755 mmHg 62%
    12:00 +23°C° 0 mm 4 mps 755 mmHg 61%
    13:00 +23°C° 0 mm 4 mps 755 mmHg 59%
    14:00 +23°C° 0 mm 4 mps 755 mmHg 57%
    15:00 +23°C° 0 mm 4 mps 755 mmHg 59%
    16:00 +22°C° 0 mm 3 mps 755 mmHg 60%
    17:00 +22°C° 0 mm 3 mps 755 mmHg 62%
    18:00 +20°C° 0 mm 3 mps 755 mmHg 67%
    19:00 +18°C° 0 mm 2 mps 755 mmHg 72%
    20:00 +16°C° 0 mm 1 mps 755 mmHg 77%
    21:00 +15°C° 0 mm 1 mps 756 mmHg 78%
    22:00 +15°C° 0 mm 1 mps 756 mmHg 79%
    23:00 +14°C° 0 mm 1 mps 756 mmHg 80%

    24 August, Saturday

    Time Temperature Precipitation Wind Pressure Humidity
    00:00 +14°C° 0 mm 1 mps 756 mmHg 82%
    01:00 +14°C° 0 mm 1 mps 756 mmHg 84%
    02:00 +13°C° 0 mm 1 mps 756 mmHg 85%
    03:00 +13°C° 0 mm 1 mps 756 mmHg 87%
    04:00 +13°C° 0 mm 1 mps 757 mmHg 88%
    05:00 +12°C° 0 mm 1 mps 757 mmHg 90%
    06:00 +14°C° 0 mm 1 mps 757 mmHg 84%
    07:00 +16°C° 0 mm 1 mps 757 mmHg 77%
    08:00 +19°C° 0 mm 1 mps 757 mmHg 71%
    09:00 +19°C° 0 mm 2 mps 757 mmHg 66%
    10:00 +20°C° 0 mm 2 mps 757 mmHg 61%
    11:00 +23°C° 0 mm 2 mps 757 mmHg 55%
    12:00 +23°C° 0 mm 2 mps 757 mmHg 53%
    13:00 +24°C° 0 mm 2 mps 757 mmHg 52%
    14:00 +24°C° 0 mm 2 mps 757 mmHg 50%
    15:00 +24°C° 0 mm 2 mps 757 mmHg 53%
    16:00 +23°C° 0 mm 2 mps 756 mmHg 56%
    17:00 +23°C° 0 mm 2 mps 756 mmHg 59%
    18:00 +20°C° 0 mm 2 mps 756 mmHg 65%
    19:00 +18°C° 0 mm 2 mps 756 mmHg 71%
    20:00 +17°C° 0 mm 2 mps 756 mmHg 77%
    21:00 +16°C° 0 mm 2 mps 756 mmHg 79%
    22:00 +15°C° 0 mm 2 mps 757 mmHg 81%
    23:00 +15°C° 0 mm 2 mps 757 mmHg 83%
    Show more